Showing default

ANGOSAT 1, 43087

Orbit data source: Space-Track

ANGOSAT 1, 43087 is a payload satellite owned by GGPEN (AO) in GEO that was launched on Tue, 26 Dec 2017 UTC via a ZENIT-3SLBF launch vehicle from the Tyuratam Missile And Space Complex (TTMTR). Payload-class satellites include a variety of spacecraft equipped with specific instruments for various scientific and technological missions. These include communications satellites like Starlink; space stations such as the ISS; scientific satellites like the Hubble; Earth observation satellites from companies like Planet Labs, Umbra, and HawkEye 360; GPS; miniature CubeSats for education and research; and military/defense satellites.

Not visible in the next 10 days
Identifier
43087, 2017-086A
Orbit
GEO
Country
Flag of AOAO / AGO
Related business
Manufacturer
RKKE
Mission
Non-operational Civil Communications
Bus & Motor
YAMAL 100, Unknown motor
Mass
1,647 kg wet, ~1,400 kg dry
Launch date (UTC)
2017-12-26 (8 years ago)
Launch vehicle
ZENIT-3SLBF
Launch site
Tyuratam Missile And Space Complex (TTMTR)
Object type
Payload
Rocket body
Debris
Shape & HBR
Box + 2 Pan, 6.0 m
Radar Cross Section
11.377 m², Large (>1 m²)

Expand to show TLE details & history
Last TLE update: 13 hours ago

TLE from 13 hours ago
0 ANGOSAT 1
1 43087U 17086A   25260.79613047 -.00000185  00000-0  00000-0 0  9991
2 43087   6.8915  70.4324 0020610 164.0202  45.0474  0.99383524 28026
Epoch: 2025-09-17T19:06Z
TLE epoch observation values (Epoch: 2025-09-17T19:06:25.672Z)
Latitude
-3.3407°
Longitude
-4.08707°
Altitude
35,976.206 km
Speed
3.07 km/s
True Right ascension
18h 37m 56s
True Declination
-3° 20' 14"
Sunlit
Object was in daylight at epoch
Visualization orbit readout
Latitude
Unknown
Longitude
Unknown
Altitude
Unknown
Speed
Unknown
Apparent Right ascension
Unknown
Apparent Declination
Unknown
Sunlit
N/A
Visualization observer readout
Local Sidereal Time
01:25:49
Azimuth
Unknown
Elevation
Unknown
Doppler factor
Unknown
Orbital elements
Apogee altitude
36,125.922 km
Perigee altitude
35,951.081 km
Semi-major axis
42,416.639 km
Eccentricity
0.00206
Inclination
6.8915°
RAAN
70.4324°
Arg. of periapsis
164.0202°
True anomaly
45.21484°
Mean anomaly
45.0474°
Eccentric anomaly
45.13109°
Mean motion
0.24845 °/min
Orbital period
1,448.98 mins
BSTAR
0
Loading maneuver chart data...
Computing Atmospheric mass density...
Loading historical data...
Loading historical data...
Loading historical data...
Loading historical data...
Loading historical data...
Loading historical data...
Loading historical data...

Documentation

Showing up to 5 results
|